�������l�o���
Date,Time,MP-1(��Sv/h),MP-2(��Sv/h),MP-3(��Sv/h),MP-4(��Sv/h),MP-5(��Sv/h),MP-6(��Sv/h),MP-7(��Sv/h),MP-8(��Sv/h),����,����(m/s),���J
2023/05/28,00:00,0.555,0.819,0.494,0.988,0.721,0.325,0.574,0.540,��,6.7,��
2023/05/28,00:10,0.556,0.819,0.495,0.986,0.724,0.325,0.572,0.540,��,6.8,��
2023/05/28,00:20,0.555,0.821,0.493,0.987,0.723,0.324,0.574,0.539,��쐼,7.0,��
2023/05/28,00:30,0.554,0.820,0.493,0.989,0.723,0.326,0.573,0.539,��쐼,6.4,��
2023/05/28,00:40,0.556,0.818,0.493,0.989,0.722,0.326,0.575,0.541,��쐼,6.4,��
2023/05/28,00:50,0.556,0.820,0.494,0.988,0.721,0.325,0.574,0.539,��쐼,7.1,��
2023/05/28,01:00,0.555,0.821,0.496,0.986,0.723,0.326,0.576,0.540,��쐼,4.5,��
2023/05/28,01:10,0.555,0.818,0.495,0.988,0.722,0.325,0.573,0.541,��쐼,3.8,��
2023/05/28,01:20,0.556,0.820,0.494,0.987,0.721,0.326,0.575,0.539,��쐼,4.7,��
2023/05/28,01:30,0.557,0.820,0.497,0.988,0.722,0.325,0.574,0.542,��쐼,5.1,��
2023/05/28,01:40,0.554,0.819,0.495,0.987,0.724,0.325,0.575,0.540,��쐼,4.6,��
2023/05/28,01:50,0.555,0.819,0.496,0.989,0.721,0.325,0.575,0.540,��,4.8,��
2023/05/28,02:00,0.556,0.818,0.495,0.990,0.723,0.326,0.576,0.541,��,5.3,��
2023/05/28,02:10,0.554,0.819,0.494,0.986,0.723,0.326,0.575,0.541,��,5.4,��
2023/05/28,02:20,0.556,0.821,0.494,0.989,0.723,0.325,0.575,0.541,��,5.2,��
2023/05/28,02:30,0.554,0.819,0.494,0.988,0.721,0.325,0.576,0.540,��,5.4,��
2023/05/28,02:40,0.557,0.819,0.495,0.989,0.722,0.325,0.576,0.542,��,6.4,��
2023/05/28,02:50,0.556,0.819,0.495,0.989,0.722,0.325,0.576,0.541,��,6.0,��
2023/05/28,03:00,0.556,0.819,0.496,0.988,0.722,0.325,0.575,0.541,��,6.4,��
2023/05/28,03:10,0.554,0.820,0.495,0.986,0.723,0.323,0.575,0.541,��,7.2,��
2023/05/28,03:20,0.554,0.822,0.494,0.988,0.723,0.326,0.576,0.541,��,6.5,��
2023/05/28,03:30,0.554,0.818,0.495,0.989,0.722,0.325,0.575,0.543,��,6.4,��
2023/05/28,03:40,0.556,0.820,0.495,0.990,0.723,0.324,0.577,0.540,��,7.3,��
2023/05/28,03:50,0.556,0.819,0.494,0.989,0.723,0.325,0.574,0.541,��,6.8,��
2023/05/28,04:00,0.555,0.820,0.495,0.989,0.722,0.325,0.575,0.540,��,6.4,��
2023/05/28,04:10,0.556,0.819,0.496,0.989,0.723,0.323,0.575,0.541,��,6.4,��
2023/05/28,04:20,0.554,0.818,0.494,0.988,0.722,0.327,0.576,0.541,��,6.8,��
2023/05/28,04:30,0.554,0.821,0.494,0.987,0.722,0.323,0.577,0.541,��,7.1,��
2023/05/28,04:40,0.554,0.821,0.495,0.988,0.721,0.324,0.575,0.542,��,6.4,��
2023/05/28,04:50,0.555,0.822,0.495,0.990,0.724,0.323,0.576,0.540,��,7.5,��
2023/05/28,05:00,0.555,0.820,0.496,0.988,0.723,0.324,0.575,0.540,��,7.4,��
2023/05/28,05:10,0.556,0.821,0.495,0.988,0.720,0.326,0.577,0.540,��,7.9,��
2023/05/28,05:20,0.555,0.821,0.494,0.987,0.722,0.324,0.577,0.542,��,9.1,��
2023/05/28,05:30,0.556,0.818,0.494,0.988,0.722,0.323,0.577,0.540,��,8.7,��
2023/05/28,05:40,0.556,0.820,0.495,0.990,0.722,0.325,0.575,0.540,��,8.4,��
2023/05/28,05:50,0.556,0.820,0.496,0.991,0.721,0.325,0.576,0.542,��,7.4,��
2023/05/28,06:00,0.552,0.820,0.495,0.988,0.719,0.323,0.575,0.541,��,6.5,��
2023/05/28,06:10,0.552,0.820,0.494,0.988,0.723,0.325,0.576,0.541,��,6.3,��
2023/05/28,06:20,0.554,0.820,0.496,0.990,0.718,0.324,0.577,0.541,��,8.0,��
2023/05/28,06:30,0.553,0.821,0.495,0.990,0.720,0.324,0.576,0.540,��,7.2,��
2023/05/28,06:40,0.553,0.817,0.495,0.990,0.721,0.324,0.576,0.539,��,6.0,��
2023/05/28,06:50,0.555,0.819,0.495,0.988,0.721,0.323,0.575,0.541,��,6.2,��
2023/05/28,07:00,0.554,0.818,0.495,0.989,0.721,0.324,0.575,0.542,��,6.5,��
2023/05/28,07:10,0.554,0.818,0.494,0.988,0.722,0.324,0.575,0.542,��,4.7,��
2023/05/28,07:20,0.554,0.818,0.497,0.990,0.722,0.323,0.575,0.540,��,4.8,��
2023/05/28,07:30,0.554,0.819,0.495,0.988,0.719,0.323,0.575,0.541,��,4.8,��
2023/05/28,07:40,0.554,0.816,0.495,0.989,0.723,0.324,0.575,0.541,��,4.7,��
2023/05/28,07:50,0.553,0.816,0.496,0.988,0.722,0.324,0.574,0.540,��,4.4,��
2023/05/28,08:00,0.555,0.818,0.495,0.989,0.723,0.324,0.575,0.541,��,3.8,��
2023/05/28,08:10,0.554,0.819,0.495,0.990,0.722,0.323,0.574,0.541,��,5.4,��
2023/05/28,08:20,0.555,0.817,0.496,0.990,0.723,0.324,0.574,0.544,��,5.0,��
2023/05/28,08:30,0.555,0.818,0.492,0.990,0.723,0.324,0.574,0.540,��,5.1,��
2023/05/28,08:40,0.555,0.819,0.494,0.991,0.723,0.325,0.575,0.539,��쓌,6.6,��
2023/05/28,08:50,0.555,0.817,0.496,0.990,0.721,0.324,0.573,0.538,��,5.7,��
2023/05/28,09:00,0.554,0.817,0.494,0.987,0.720,0.325,0.574,0.537,��쓌,6.5,��
2023/05/28,09:10,0.555,0.818,0.493,0.990,0.721,0.325,0.574,0.542,��,8.9,��
2023/05/28,09:20,0.554,0.819,0.493,0.989,0.721,0.324,0.573,0.539,��,9.8,��
2023/05/28,09:30,0.554,0.818,0.494,0.988,0.723,0.325,0.573,0.539,��,9.4,��
2023/05/28,09:40,0.556,0.819,0.492,0.990,0.723,0.325,0.574,0.539,��,9.3,��
2023/05/28,09:50,0.556,0.817,0.494,0.989,0.723,0.325,0.574,0.538,��,9.1,��
2023/05/28,10:00,0.555,0.819,0.493,0.989,0.720,0.324,0.573,0.539,��,7.2,��
2023/05/28,10:10,0.555,0.818,0.495,0.988,0.722,0.324,0.573,0.538,��,6.8,��
2023/05/28,10:20,0.556,0.816,0.493,0.990,0.722,0.325,0.572,0.539,��,7.3,��
2023/05/28,10:30,0.557,0.818,0.495,0.989,0.721,0.325,0.573,0.538,��,6.1,��
2023/05/28,10:40,0.556,0.819,0.494,0.989,0.723,0.324,0.573,0.539,��,5.5,��
2023/05/28,10:50,0.555,0.819,0.494,0.990,0.723,0.324,0.573,0.539,��,8.4,��
2023/05/28,11:00,0.554,0.817,0.495,0.989,0.722,0.325,0.572,0.539,��,9.2,��
2023/05/28,11:10,0.556,0.817,0.493,0.990,0.721,0.323,0.574,0.539,��,9.9,��
2023/05/28,11:20,0.556,0.819,0.495,0.988,0.722,0.324,0.572,0.538,��,7.5,��
2023/05/28,11:30,0.556,0.817,0.494,0.988,0.721,0.326,0.573,0.540,��,6.4,��
2023/05/28,11:40,0.553,0.818,0.493,0.989,0.723,0.324,0.572,0.537,��쓌,9.5,��
2023/05/28,11:50,0.555,0.817,0.493,0.989,0.722,0.325,0.572,0.539,��,9.4,��
2023/05/28,12:00,0.556,0.819,0.495,0.990,0.723,0.326,0.572,0.540,��,8.9,��
2023/05/28,12:10,0.555,0.817,0.493,0.991,0.724,0.325,0.572,0.540,��,6.3,��
2023/05/28,12:20,0.555,0.818,0.494,0.990,0.723,0.325,0.572,0.539,��,6.9,��
2023/05/28,12:30,0.557,0.818,0.491,0.991,0.721,0.324,0.572,0.540,��,7.9,��
2023/05/28,12:40,0.556,0.821,0.494,0.991,0.721,0.325,0.574,0.539,��,7.6,��
2023/05/28,12:50,0.556,0.817,0.493,0.991,0.722,0.326,0.572,0.540,��,6.8,��
2023/05/28,13:00,0.557,0.818,0.493,0.989,0.722,0.324,0.574,0.538,��,7.3,��
2023/05/28,13:10,0.557,0.819,0.493,0.989,0.724,0.324,0.570,0.539,��,7.0,��
2023/05/28,13:20,0.556,0.819,0.495,0.989,0.723,0.324,0.571,0.541,��,6.6,��
2023/05/28,13:30,0.556,0.821,0.494,0.990,0.722,0.323,0.572,0.541,��쓌,6.2,��
2023/05/28,13:40,0.555,0.821,0.494,0.991,0.722,0.326,0.573,0.540,��쓌,7.9,��
2023/05/28,13:50,0.554,0.819,0.493,0.990,0.723,0.324,0.571,0.538,��,9.8,��
2023/05/28,14:00,0.556,0.818,0.492,0.992,0.723,0.325,0.572,0.539,��,7.5,�L
2023/05/28,14:10,0.557,0.818,0.494,0.992,0.723,0.325,0.571,0.540,��,6.2,��
2023/05/28,14:20,0.557,0.819,0.496,0.992,0.723,0.325,0.572,0.540,��,7.3,��
2023/05/28,14:30,0.554,0.819,0.495,0.991,0.724,0.324,0.572,0.539,��,7.3,��
2023/05/28,14:40,0.554,0.817,0.496,0.992,0.725,0.323,0.572,0.539,��,7.5,��
2023/05/28,14:50,0.554,0.819,0.496,0.990,0.723,0.324,0.570,0.541,��,8.2,��
2023/05/28,15:00,0.555,0.818,0.498,0.992,0.722,0.326,0.573,0.540,��,7.8,��
2023/05/28,15:10,0.556,0.820,0.495,0.990,0.723,0.324,0.574,0.540,��,7.7,��
2023/05/28,15:20,0.556,0.819,0.496,0.992,0.725,0.325,0.573,0.540,��,6.7,��
2023/05/28,15:30,0.555,0.820,0.496,0.993,0.720,0.323,0.572,0.540,��,8.5,��
2023/05/28,15:40,0.556,0.818,0.496,0.993,0.720,0.324,0.572,0.540,��,8.1,��
2023/05/28,15:50,0.555,0.820,0.495,0.994,0.723,0.324,0.572,0.539,��,8.9,��
2023/05/28,16:00,0.554,0.818,0.495,0.991,0.724,0.325,0.573,0.540,��,8.5,��
2023/05/28,16:10,0.556,0.820,0.494,0.993,0.724,0.325,0.572,0.541,��,7.1,��
2023/05/28,16:20,0.555,0.819,0.494,0.993,0.723,0.324,0.573,0.538,��,6.7,��
2023/05/28,16:30,0.556,0.820,0.496,0.992,0.724,0.326,0.573,0.541,��,7.1,��
2023/05/28,16:40,0.556,0.820,0.494,0.993,0.722,0.325,0.572,0.540,��,7.9,��
2023/05/28,16:50,0.556,0.819,0.495,0.992,0.723,0.324,0.572,0.542,��,7.9,��
2023/05/28,17:00,0.555,0.818,0.494,0.994,0.722,0.323,0.571,0.542,��,8.0,��
2023/05/28,17:10,0.555,0.820,0.495,0.993,0.723,0.324,0.572,0.542,��,6.5,��
2023/05/28,17:20,0.556,0.820,0.496,0.992,0.724,0.324,0.572,0.541,��,6.7,��
2023/05/28,17:30,0.556,0.819,0.496,0.992,0.723,0.325,0.574,0.541,��,6.6,��
2023/05/28,17:40,0.556,0.819,0.496,0.993,0.725,0.324,0.573,0.542,��쐼,6.4,��
2023/05/28,17:50,0.557,0.819,0.496,0.995,0.723,0.324,0.571,0.541,��,5.9,��
2023/05/28,18:00,0.558,0.821,0.496,0.994,0.725,0.324,0.573,0.542,��쐼,5.2,��
2023/05/28,18:10,0.556,0.822,0.497,0.994,0.723,0.323,0.574,0.541,��,4.5,��
2023/05/28,18:20,0.556,0.821,0.495,0.992,0.724,0.324,0.573,0.542,��,4.7,��
2023/05/28,18:30,0.554,0.823,0.496,0.992,0.722,0.325,0.572,0.543,��,5.7,�L
2023/05/28,18:40,0.555,0.819,0.495,0.992,0.725,0.324,0.573,0.541,��,4.9,��
2023/05/28,18:50,0.556,0.822,0.496,0.993,0.724,0.323,0.573,0.543,��,5.4,�L
2023/05/28,19:00,0.560,0.823,0.498,0.994,0.726,0.325,0.572,0.542,��쐼,4.3,�L
2023/05/28,19:10,0.560,0.825,0.499,0.996,0.729,0.330,0.573,0.542,��,4.7,�L
2023/05/28,19:20,0.561,0.826,0.502,0.998,0.730,0.330,0.575,0.542,��,5.1,�L
2023/05/28,19:30,0.563,0.826,0.501,0.999,0.731,0.331,0.574,0.543,��,5.2,�L
2023/05/28,19:40,0.564,0.826,0.504,1.001,0.729,0.331,0.574,0.541,��,5.2,�L
2023/05/28,19:50,0.563,0.827,0.503,0.999,0.731,0.333,0.575,0.544,��쐼,5.4,�L
2023/05/28,20:00,0.563,0.827,0.503,0.998,0.728,0.331,0.575,0.545,��쐼,5.1,�L
2023/05/28,20:10,0.560,0.827,0.501,0.999,0.730,0.330,0.576,0.543,��쐼,4.7,�L
2023/05/28,20:20,0.561,0.824,0.502,0.995,0.728,0.331,0.575,0.542,��쐼,4.0,�L
2023/05/28,20:30,0.561,0.822,0.501,0.997,0.726,0.329,0.574,0.542,��쐼,3.2,�L
2023/05/28,20:40,0.559,0.821,0.499,0.995,0.725,0.329,0.575,0.542,�쐼,2.6,�L
2023/05/28,20:50,0.558,0.822,0.498,0.996,0.725,0.329,0.575,0.542,���쐼,2.3,�L
2023/05/28,21:00,0.558,0.821,0.497,0.994,0.725,0.327,0.575,0.542,�쐼,2.0,��
2023/05/28,21:10,0.557,0.819,0.497,0.993,0.725,0.327,0.575,0.542,�쐼,2.3,�L
2023/05/28,21:20,0.557,0.819,0.497,0.992,0.722,0.326,0.573,0.542,�쐼,2.3,�L
2023/05/28,21:30,0.557,0.819,0.498,0.994,0.725,0.327,0.576,0.543,��쐼,3.7,�L
2023/05/28,21:40,0.558,0.821,0.497,0.994,0.724,0.327,0.574,0.541,��쐼,5.2,�L
2023/05/28,21:50,0.558,0.818,0.499,0.993,0.723,0.326,0.575,0.542,�쐼,4.2,�L
2023/05/28,22:00,0.558,0.819,0.497,0.993,0.724,0.327,0.574,0.541,��쐼,3.7,�L
2023/05/28,22:10,0.558,0.821,0.496,0.994,0.724,0.327,0.573,0.541,��쐼,4.0,�L
2023/05/28,22:20,0.557,0.819,0.496,0.991,0.724,0.327,0.574,0.543,��쐼,3.9,�L
2023/05/28,22:30,0.557,0.819,0.497,0.994,0.723,0.328,0.573,0.541,�쐼,3.5,��
2023/05/28,22:40,0.557,0.819,0.495,0.994,0.724,0.326,0.574,0.541,��쐼,3.1,�L
2023/05/28,22:50,0.556,0.820,0.494,0.993,0.722,0.325,0.575,0.541,��,3.1,�L
2023/05/28,23:00,0.556,0.817,0.495,0.993,0.722,0.327,0.574,0.541,��쐼,4.5,�L
2023/05/28,23:10,0.558,0.818,0.496,0.994,0.722,0.325,0.574,0.543,��쐼,4.7,�L
2023/05/28,23:20,0.556,0.816,0.495,0.994,0.722,0.327,0.574,0.541,��쐼,4.2,�L
2023/05/28,23:30,0.558,0.816,0.496,0.992,0.722,0.327,0.575,0.542,��쐼,3.7,�L
2023/05/28,23:40,0.557,0.818,0.495,0.992,0.721,0.326,0.573,0.542,��쐼,3.8,�L
2023/05/28,23:50,0.557,0.820,0.497,0.993,0.720,0.327,0.574,0.542,��쐼,2.8,�L
